Weather History for Kaneohe MCBH, HI

Change the Weather History Date:

Tuesday, May 1, 2012

  Actual Average Record
Temperature  
Mean Temperature 76 °F -  
Max Temperature 80 °F 76 °F 85 °F (2013)
Min Temperature 72 °F 68 °F 60 °F (2005)
Cooling Degree Days 11    
Growing Degree Days 26 (Base 50)    
Moisture  
Dew Point 66 °F    
Average Humidity 73    
Maximum Humidity 84    
Minimum Humidity 65    
Precipitation  
Precipitation 0.01 in - - ()
Sea Level Pressure  
Sea Level Pressure 30.10 in    
Wind  
Wind Speed 9 mph (ENE)    
Max Wind Speed 16 mph    
Max Gust Speed 23 mph    
Visibility 10 miles    
Events Rain    
Averages and records for this station are not official NWS values.
T = Trace of Precipitation, MM = Missing Value Source: NWS Daily Summary

Daily Weather History Graph

Daily Weather History Graph

Search for Another Location

Airport:

Trip Planner

Search our weather history database for the weather conditions in past years. The results will help you decide how hot, cold, wet, or windy it might be!

Date:

Astronomy

May. 01, 2012 Rise Set
Actual Time 5:59 AM HST 6:56 PM HST
Civil Twilight 5:36 AM HST 7:20 PM HST
Nautical Twilight 5:08 AM HST 7:47 PM HST
Astronomical Twilight 4:40 AM HST 8:15 PM HST
Moon 2:45 PM HST 2:26 AM HST
Length of Visible Light 13h 43m
Length of Day
12h 57m
Waxing Gibbous, 76% of the Moon is Illuminated
May 1
Waxing Gibbous
May 5
Full
May 12
Last Quarter
May 20
New
May 28
First Quarter

Hourly Weather History & Observations

Time (HST) Temp. Heat Index Dew Point Humidity Pressure Visibility Wind Dir Wind Speed Gust Speed Precip Events Conditions
12:36 AM 73.4 °F - 64.4 °F 73% 30.13 in 10.0 mi East 9.2 mph 17.3 mph N/A   Mostly Cloudy
12:57 AM 73.4 °F - 64.4 °F 73% 30.12 in 10.0 mi East 6.9 mph 17.3 mph 0.00 in Rain Light Rain
1:39 AM 73.4 °F - 66.2 °F 78% 30.12 in 10.0 mi East 8.1 mph 16.1 mph 0.00 in   Overcast
1:57 AM 73.4 °F - 66.2 °F 78% 30.10 in 10.0 mi East 8.1 mph 17.3 mph 0.00 in   Overcast
2:35 AM - - - N/A% 30.11 in 10.0 mi East 8.1 mph 21.9 mph N/A   Scattered Clouds
2:57 AM 73.4 °F - 64.4 °F 73% 30.09 in 10.0 mi ENE 6.9 mph - N/A   Mostly Cloudy
3:19 AM - - - N/A% 30.10 in 6.2 mi ENE 6.9 mph - N/A   Mostly Cloudy
3:57 AM 73.4 °F - 64.4 °F 73% 30.09 in 10.0 mi ENE 5.8 mph - N/A   Mostly Cloudy
4:14 AM 73.4 °F - 64.4 °F 73% 30.10 in 10.0 mi East 5.8 mph - N/A   Mostly Cloudy
4:25 AM - - - N/A% - - North - - N/A   Unknown
4:57 AM 73.4 °F - 64.4 °F 73% 30.09 in 10.0 mi East 5.8 mph - N/A   Mostly Cloudy
5:34 AM 73.4 °F - 64.4 °F 73% 30.11 in 10.0 mi East 6.9 mph - N/A   Mostly Cloudy
5:44 AM 73.4 °F - 64.4 °F 73% 30.11 in 10.0 mi ENE 10.4 mph 17.3 mph N/A   Scattered Clouds
5:57 AM 73.4 °F - 64.4 °F 73% 30.10 in 10.0 mi ENE 6.9 mph 16.1 mph N/A   Mostly Cloudy
6:18 AM 73.4 °F - 64.4 °F 73% 30.12 in 10.0 mi East 6.9 mph - N/A   Mostly Cloudy
6:29 AM 73.4 °F - 64.4 °F 73% 30.12 in 10.0 mi ENE 12.7 mph 19.6 mph N/A   Overcast
6:40 AM 73.4 °F - 64.4 °F 73% 30.13 in 10.0 mi East 8.1 mph - N/A   Overcast
6:57 AM 73.4 °F - 64.4 °F 73% 30.12 in 10.0 mi ENE 9.2 mph 19.6 mph N/A   Overcast
7:57 AM 73.4 °F - 64.4 °F 73% 30.14 in 10.0 mi ENE 10.4 mph 19.6 mph N/A   Mostly Cloudy
8:17 AM 73.4 °F - 64.4 °F 73% 30.15 in 10.0 mi ENE 10.4 mph 17.3 mph N/A   Overcast
8:57 AM 75.4 °F - 70.2 °F 84% 30.14 in 10.0 mi ENE 10.4 mph - 0.01 in Rain Light Rain
9:57 AM 75.9 °F - 68.2 °F 77% 30.14 in 10.0 mi ENE 9.2 mph 18.4 mph 0.00 in Rain Light Rain
10:57 AM 76.6 °F - 67.1 °F 72% 30.14 in 10.0 mi East 8.1 mph 18.4 mph 0.00 in   Overcast
11:14 AM 77.0 °F - 68.0 °F 74% 30.14 in 6.2 mi East 10.4 mph 17.3 mph N/A   Overcast
11:57 AM 75.2 °F - 68.0 °F 78% 30.13 in 10.0 mi ENE 9.2 mph - N/A Rain Light Rain
12:57 PM 79.7 °F - 68.7 °F 69% 30.10 in 10.0 mi ESE 10.4 mph 19.6 mph 0.00 in   Overcast
1:35 PM 80.6 °F 83.2 °F 68.0 °F 65% 30.10 in 10.0 mi East 10.4 mph 20.7 mph 0.00 in   Overcast
1:43 PM 80.6 °F 83.2 °F 68.0 °F 65% 30.10 in 10.0 mi East 11.5 mph 20.7 mph 0.00 in   Overcast
1:57 PM 76.8 °F - 69.3 °F 77% 30.08 in 10.0 mi East 13.8 mph 23.0 mph 0.00 in   Overcast
2:13 PM 77.0 °F - 69.8 °F 78% 30.08 in 10.0 mi ENE 16.1 mph 23.0 mph N/A   Overcast
2:57 PM 76.8 °F - 69.3 °F 77% 30.06 in 10.0 mi East 11.5 mph 18.4 mph N/A   Mostly Cloudy
3:27 PM 80.6 °F 83.2 °F 68.0 °F 65% 30.06 in 10.0 mi East 13.8 mph 21.9 mph N/A   Scattered Clouds
3:57 PM 78.6 °F - 66.2 °F 66% 30.04 in 10.0 mi East 10.4 mph 20.7 mph N/A   Partly Cloudy
4:57 PM 78.8 °F - 66.2 °F 65% 30.04 in 10.0 mi ENE 12.7 mph 18.4 mph N/A   Scattered Clouds
5:04 PM 78.8 °F - 68.0 °F 69% 30.05 in 10.0 mi East 11.5 mph 19.6 mph N/A   Scattered Clouds
5:57 PM 75.0 °F - 66.7 °F 75% 30.05 in 10.0 mi East 10.4 mph 16.1 mph N/A   Scattered Clouds
6:57 PM 74.1 °F - 64.9 °F 73% 30.06 in 10.0 mi East 9.2 mph - N/A   Scattered Clouds
7:02 PM - - - N/A% - - North - - N/A   Unknown
7:30 PM - - - N/A% - - North - - N/A   Unknown
7:57 PM 75.2 °F - 66.2 °F 73% 30.10 in 10.0 mi East 8.1 mph 17.3 mph N/A   Scattered Clouds
8:57 PM 73.8 °F - 64.4 °F 72% 30.11 in 10.0 mi East 11.5 mph 19.6 mph N/A   Mostly Cloudy
9:57 PM 72.9 °F - 64.0 °F 74% 30.12 in 10.0 mi East 9.2 mph 17.3 mph 0.00 in   Mostly Cloudy
10:57 PM 73.4 °F - 64.4 °F 73% 30.12 in 10.0 mi ENE 12.7 mph 18.4 mph N/A   Mostly Cloudy
11:00 PM - - - N/A% - - North - - N/A   Unknown
11:57 PM 73.4 °F - 64.9 °F 75% 30.12 in 10.0 mi East 6.9 mph - 0.00 in   Mostly Cloudy